Location: Home
(42.5358°N, 72.7383°W)
Time: 05:52:31
(UTC-05:00)

Transit 4A - Pass Details

Date: 01 December 2021
Orbit: 863 x 981 km, 66.8° (Epoch: 25 January)

Event Time Altitude Azimuth Distance (km) Brightness Sun altitude
Exits shadow 04:45:52 38° 329° (NNW) 1,424 8.5 -24.3°
Maximum altitude 04:48:29 89° 249° (WSW) 972 7.9 -23.8°
Drops below altitude 10° 04:54:53 10° 152° (SSE) 2,719 10.8 -22.7°
Sets 04:57:27 0° 152° (SSE) 3,667 11.5 -22.2°
